Location: Azat
(46.0765°N, 1.7600°E)
Time: 16:06:56
(UTC+00:00)

STARLINK-1192 - Pass Details

Date: 09 April 2020
Orbit: 549 x 550 km, 53.0° (Epoch: 28 May)

Event Time Altitude Azimuth Distance (km) Brightness Sun altitude
Rises 19:34:00 0° 298° (WNW) 2,732 9.4 -10.9°
Reaches altitude 10° 19:36:19 10° 305° (NW) 1,837 7.8 -11.3°
Maximum altitude 19:40:20 44° 19° (NNE) 772 4.4 -11.9°
Enters shadow 19:43:25 16° 87° (E) 1,496 5.3 -12.4°
